Regional Weather Roundup
Issued by NWS

Home | Current Version | Previous Version | Graphics & Text | Print | Product List | Glossary On
Versions: 1 2 3 4 5 6 7 8 9 10 11 12 13 14 15 16 17 18 19 20 21 22 23 24 25 26 27 28 29 30 31 32 33 34 35 36 37 38 39 40 41 42 43 44 45 46 47 48 49 50
000
ASUS43 KTOP 241808
RWRKS

WEATHER ROUNDUP FOR KANSAS
NATIONAL WEATHER SERVICE GOODLAND KS
100 PM CDT SUN MAY 24 2015

NOTE:  "FAIR" INDICATES FEW OR NO CLOUDS BELOW 12,000 FEET WITH NO
SIGNIFICANT WEATHER AND/OR OBSTRUCTIONS TO VISIBILITY.

KSZ001>006-013>018-027>032-041>047-241900-
NORTHWEST KANSAS

CITY           SKY/WX    TMP DP  RH WIND       PRES   REMARKS
GOODLAND       PTSUNNY   65  55  70 VRB3      29.87F
6HR MIN TEMP:  52; 6HR MAX TEMP:  66; 6HR PCP: TRACE;

HAYS           CLOUDY    66  55  68 S7        29.86S
HILL CITY      CLOUDY    62  58  86 S5        29.87F
6HR MIN TEMP:  57; 6HR MAX TEMP:  62;

RUSSELL        CLOUDY    68  60  75 S8        29.85S
6HR MIN TEMP:  57; 6HR MAX TEMP:  68;

$$

KSZ061>065-074>080-084>089-241900-
SOUTHWEST KANSAS

CITY           SKY/WX    TMP DP  RH WIND       PRES   REMARKS
DODGE CITY     LGT RAIN  63  58  83 S13       29.87F
6HR MIN TEMP:  57; 6HR MAX TEMP:  64; 6HR PCP: TRACE;

ELKHART          N/A     69  53  56 SE9         N/A
GARDEN CITY    CLOUDY    63  56  78 S8        29.85F
6HR MIN TEMP:  55; 6HR MAX TEMP:  63;

GREAT BEND     CLOUDY    66  59  77 S10       29.86S
LIBERAL        CLOUDY    64  55  72 S10       29.86F
PRATT          CLOUDY    66  59  77 SE10      29.89F
$$

KSZ066>073-081>083-090>101-241900-
SOUTHEAST KANSAS

CITY           SKY/WX    TMP DP  RH WIND       PRES   REMARKS
CHANUTE        CLOUDY    68  62  81 S9        29.91S
6HR MIN TEMP:  63; 6HR MAX TEMP:  69; 6HR PCP:  0.09;

COFFEYVILLE    CLOUDY    67  63  87 S5        29.92S
6HR MIN TEMP:  62; 6HR MAX TEMP:  67; 6HR PCP:  0.07;

HUTCHINSON     CLOUDY    68  60  75 SE9       29.88F
6HR MIN TEMP:  59; 6HR MAX TEMP:  69;

MEDICINE LODGE   N/A     67  60  78 SE7       29.86F
NEWTON         CLOUDY    64  57  77 S10       29.91F
PARSONS        CLOUDY    69  64  84 SW7       29.93S
6HR MIN TEMP:  63; 6HR MAX TEMP:  69; 6HR PCP:  0.06;

WICHITA INTL   CLOUDY    68  61  78 SE8       29.88F
6HR MIN TEMP:  60; 6HR MAX TEMP:  68;

WICHITA JABRA  CLOUDY    67  61  81 S9        29.88F
6HR MIN TEMP:  58; 6HR MAX TEMP:  67;

WICHITA MCCONL CLOUDY    67  62  82 SE8       29.89F
WINFIELD       CLOUDY    68  62  81 SE12      29.90F
6HR MIN TEMP:  61; 6HR MAX TEMP:  68;

$$

KSZ007>012-019>026-033>040-048>060-102>105-241900-
NORTHEAST KANSAS

CITY           SKY/WX    TMP DP  RH WIND       PRES   REMARKS
CONCORDIA      CLOUDY    65  59  81 S14       29.87S
6HR MIN TEMP:  59; 6HR MAX TEMP:  67; 6HR PCP: TRACE;

EMPORIA        CLOUDY    66  61  84 S12       29.90S
6HR MIN TEMP:  60; 6HR MAX TEMP:  67; 6HR PCP:  0.01;

LAWRENCE       CLOUDY    68  62  81 SW6       29.89F
6HR MIN TEMP:  64; 6HR MAX TEMP:  69; 6HR PCP:  0.02;

MANHATTAN      CLOUDY    68  63  84 SW6       29.87F
6HR MIN TEMP:  62; 6HR MAX TEMP:  68; 6HR PCP: TRACE;

MARYSVILLE     CLOUDY    68  63  83 SW9       29.87R
OLATHE IND     CLOUDY    68  63  84 S8        29.90F
6HR MIN TEMP:  64; 6HR MAX TEMP:  68; 6HR PCP:  0.02;

OLATHE EXE     CLOUDY    68  64  87 S5        29.89F
6HR MIN TEMP:  64; 6HR MAX TEMP:  68; 6HR PCP:  0.09;

SALINA         CLOUDY    67  59  75 S10       29.87F
6HR MIN TEMP:  59; 6HR MAX TEMP:  67;

TOPEKA BILLARD CLOUDY    70  62  76 S5        29.88F
6HR MIN TEMP:  64; 6HR MAX TEMP:  70; 6HR PCP: TRACE;

TOPEKA FORBES  CLOUDY    71  61  70 S5        29.88F
6HR MIN TEMP:  64; 6HR MAX TEMP:  71; 6HR PCP: TRACE;

$$



USA.gov is the U.S. government's official web portal to all federal, state and local government web resources and services.